Location: Hawk's Hollow Observatory
(42.9278°N, 85.8301°W)
Time: 23:03:21
(UTC-04:00)

Envisat - Visible Passes

Search period start: 24 April 2018 00:00
Search period end: 04 May 2018 00:00
Orbit: 764 x 766 km, 98.2° (Epoch: 24 April)

Date Brightness Start Highest point End Pass type
(mag) Time Alt. Az. Time Alt. Az. Time Alt. Az.
24 Apr 4.1 21:35:24 10° S 21:40:14 44° W 21:45:06 10° NNW visible
25 Apr 3.0 20:58:22 10° SSE 21:03:27 84° ENE 21:08:33 10° NNW visible
25 Apr 5.8 22:41:27 10° WSW 22:43:06 11° W 22:44:46 10° WNW visible
26 Apr 5.1 22:01:47 10° SSW 22:05:58 26° W 22:10:11 10° NW visible
27 Apr 3.7 21:24:04 10° S 21:29:03 56° W 21:34:03 10° NNW visible
28 Apr 5.7 22:29:00 10° WSW 22:31:49 15° W 22:34:38 10° NW visible
29 Apr 4.7 21:50:13 10° SSW 21:54:44 32° W 21:59:17 10° NNW visible
30 Apr 3.3 21:12:49 10° S 21:17:52 71° WSW 21:22:58 10° NNW visible
01 May 5.5 22:17:00 10° SW 22:20:32 19° W 22:24:05 10° NW visible
02 May 4.3 21:38:46 10° SSW 21:43:32 40° W 21:48:19 10° NNW visible
03 May 6.0 22:45:46 10° W 22:46:26 10° W 22:47:07 10° W visible
